Torna al catalogo

RUBIN 3/SL-8

AttivoScienzaSSO
NORAD 27561·PAYLOAD·🇩🇪 Germany

Lanciato Nov 28, 2002 da Plesetsk Cosmodrome

Loading…

Prossimi Passaggi (prossime 24 ore)

TLE

AggiornatoSource: Space-Track

Epoca: Sep 14, 2026, 13:32 UTC

1 27561U 02054C   26257.56454739  .00000229  00000-0  59383-4 0  9992
2 27561  98.4441 119.7201 0043373 212.4453 147.4078 14.58625180263704

Traccia RUBIN 3/SL-8 in tempo reale con AllMySat

Download on the App Store